When you browse on this site, cookies collect data to enhance your experience and personalize the content and advertising you see.
Visit our Privacy Policy to learn more. By continuing to use the site, you agree to this use of cookies and data.
  • In Hungary
  • List of Countries
  • For 7 days
  • Water Temperature
  • Satellite Maps
  • Weather Map
  • News
  • Weather Widgets
  • user-avatar
    Login

    Hourly Weather Nazaret

    Today, 18 July, Thursday

    Time Temperature Precipitation Wind Pressure Humidity
    00:00 +23°C° 0 mm 1 mps 723 mmHg 92%
    01:00 +23°C° 0 mm 1 mps 723 mmHg 92%
    02:00 +23°C° 0 mm 1 mps 722 mmHg 93%
    03:00 +23°C° 0 mm 1 mps 723 mmHg 93%
    04:00 +23°C° 0 mm 1 mps 723 mmHg 93%
    05:00 +23°C° 0 mm 1 mps 723 mmHg 93%
    06:00 +25°C° 0 mm 2 mps 724 mmHg 83%
    07:00 +27°C° 0 mm 3 mps 724 mmHg 72%
    08:00 +28°C° 0 mm 4 mps 724 mmHg 62%
    09:00 +30°C° 0 mm 5 mps 725 mmHg 55%
    10:00 +32°C° 0 mm 6 mps 725 mmHg 49%
    11:00 +34°C° 0 mm 7 mps 725 mmHg 42%
    12:00 +34°C° 0 mm 7 mps 725 mmHg 42%
    13:00 +33°C° 0 mm 7 mps 725 mmHg 42%
    14:00 +33°C° 0 mm 7 mps 725 mmHg 43%
    15:00 +32°C° 0 mm 6 mps 725 mmHg 47%
    16:00 +30°C° 0 mm 6 mps 725 mmHg 51%
    17:00 +29°C° 0 mm 5 mps 725 mmHg 55%
    18:00 +27°C° 0 mm 4 mps 725 mmHg 64%
    19:00 +25°C° 0 mm 3 mps 725 mmHg 73%
    20:00 +23°C° 0 mm 2 mps 725 mmHg 82%
    21:00 +23°C° 0 mm 2 mps 725 mmHg 84%
    22:00 +21°C° 0 mm 2 mps 725 mmHg 85%
    23:00 +22°C° 0 mm 1 mps 725 mmHg 87%

    Tomorrow, 19 July, Friday

    Time Temperature Precipitation Wind Pressure Humidity
    00:00 +22°C° 0 mm 1 mps 725 mmHg 87%
    01:00 +22°C° 0 mm 1 mps 725 mmHg 87%
    02:00 +21°C° 0 mm 1 mps 725 mmHg 88%
    03:00 +21°C° 0 mm 1 mps 725 mmHg 88%
    04:00 +21°C° 0 mm 1 mps 726 mmHg 88%
    05:00 +21°C° 0 mm 1 mps 726 mmHg 88%
    06:00 +23°C° 0 mm 1 mps 726 mmHg 78%
    07:00 +25°C° 0 mm 2 mps 727 mmHg 68%
    08:00 +28°C° 0 mm 2 mps 727 mmHg 58%
    09:00 +29°C° 0 mm 3 mps 727 mmHg 52%
    10:00 +30°C° 0 mm 4 mps 727 mmHg 47%
    11:00 +33°C° 0 mm 5 mps 727 mmHg 42%
    12:00 +33°C° 0 mm 5 mps 727 mmHg 43%
    13:00 +33°C° 0 mm 6 mps 727 mmHg 43%
    14:00 +33°C° 0 mm 6 mps 726 mmHg 44%
    15:00 +32°C° 0 mm 6 mps 726 mmHg 48%
    16:00 +30°C° 0 mm 6 mps 726 mmHg 53%
    17:00 +28°C° 0 mm 6 mps 726 mmHg 57%
    18:00 +27°C° 0 mm 5 mps 726 mmHg 65%
    19:00 +25°C° 0 mm 4 mps 726 mmHg 73%
    20:00 +23°C° 0 mm 2 mps 726 mmHg 81%
    21:00 +21°C° 0 mm 2 mps 726 mmHg 83%
    22:00 +21°C° 0 mm 2 mps 726 mmHg 84%
    23:00 +21°C° 0 mm 1 mps 726 mmHg 86%

    Day after tomorrow, 20 July, Saturday

    Time Temperature Precipitation Wind Pressure Humidity
    00:00 +21°C° 0 mm 1 mps 726 mmHg 87%
    01:00 +21°C° 0 mm 1 mps 726 mmHg 87%
    02:00 +21°C° 0 mm 1 mps 725 mmHg 88%
    03:00 +20°C° 0 mm 1 mps 725 mmHg 88%
    04:00 +20°C° 0 mm 1 mps 725 mmHg 89%
    05:00 +20°C° 0 mm 1 mps 726 mmHg 89%
    06:00 +23°C° 0 mm 1 mps 726 mmHg 79%
    07:00 +25°C° 0 mm 2 mps 726 mmHg 69%
    08:00 +27°C° 0 mm 2 mps 727 mmHg 60%
    09:00 +29°C° 0 mm 3 mps 727 mmHg 54%
    10:00 +32°C° 0 mm 4 mps 727 mmHg 47%
    11:00 +33°C° 0 mm 4 mps 727 mmHg 41%
    12:00 +33°C° 0 mm 5 mps 727 mmHg 42%
    13:00 +33°C° 0 mm 6 mps 727 mmHg 43%
    14:00 +33°C° 0 mm 7 mps 726 mmHg 43%
    15:00 +32°C° 0 mm 6 mps 726 mmHg 48%
    16:00 +30°C° 0 mm 6 mps 726 mmHg 53%
    17:00 +29°C° 0 mm 6 mps 726 mmHg 57%
    18:00 +27°C° 0 mm 5 mps 726 mmHg 66%
    19:00 +25°C° 0 mm 3 mps 726 mmHg 76%
    20:00 +23°C° 0 mm 2 mps 726 mmHg 85%
    21:00 +23°C° 0 mm 2 mps 726 mmHg 87%
    22:00 +21°C° 0 mm 2 mps 726 mmHg 88%
    23:00 +22°C° 0 mm 1 mps 726 mmHg 89%

    21 July, Sunday

    Time Temperature Precipitation Wind Pressure Humidity
    00:00 +22°C° 0 mm 1 mps 726 mmHg 89%
    01:00 +21°C° 0 mm 1 mps 725 mmHg 89%
    02:00 +21°C° 0 mm 1 mps 725 mmHg 90%
    03:00 +21°C° 0 mm 1 mps 725 mmHg 90%
    04:00 +21°C° 0 mm 1 mps 725 mmHg 90%
    05:00 +21°C° 0 mm 1 mps 725 mmHg 91%
    06:00 +23°C° 0 mm 1 mps 725 mmHg 81%
    07:00 +25°C° 0 mm 1 mps 726 mmHg 71%
    08:00 +27°C° 0 mm 2 mps 726 mmHg 61%
    09:00 +29°C° 0 mm 2 mps 726 mmHg 54%
    10:00 +31°C° 0 mm 3 mps 726 mmHg 48%
    11:00 +34°C° 0 mm 3 mps 726 mmHg 42%
    12:00 +34°C° 0 mm 4 mps 726 mmHg 42%
    13:00 +34°C° 0 mm 5 mps 726 mmHg 43%
    14:00 +34°C° 0 mm 6 mps 725 mmHg 43%
    15:00 +33°C° 0 mm 6 mps 725 mmHg 47%
    16:00 +32°C° 0 mm 6 mps 725 mmHg 51%
    17:00 +30°C° 0 mm 5 mps 725 mmHg 55%
    18:00 +28°C° 0 mm 4 mps 725 mmHg 64%
    19:00 +26°C° 0 mm 3 mps 725 mmHg 73%
    20:00 +23°C° 0 mm 2 mps 725 mmHg 82%
    21:00 +23°C° 0 mm 2 mps 725 mmHg 83%
    22:00 +23°C° 0 mm 2 mps 725 mmHg 84%
    23:00 +22°C° 0 mm 1 mps 725 mmHg 85%

    22 July, Monday

    Time Temperature Precipitation Wind Pressure Humidity
    00:00 +22°C° 0 mm 1 mps 724 mmHg 86%
    01:00 +22°C° 0 mm 1 mps 724 mmHg 87%
    02:00 +22°C° 0 mm 1 mps 724 mmHg 88%
    03:00 +21°C° 0 mm 1 mps 724 mmHg 89%
    04:00 +21°C° 0 mm 1 mps 724 mmHg 89%
    05:00 +19°C° 0 mm 0 mps 724 mmHg 90%
    06:00 +23°C° 0 mm 1 mps 724 mmHg 80%
    07:00 +26°C° 0 mm 1 mps 724 mmHg 70%
    08:00 +28°C° 0 mm 1 mps 725 mmHg 61%
    09:00 +30°C° 0 mm 2 mps 725 mmHg 54%
    10:00 +33°C° 0 mm 3 mps 725 mmHg 47%
    11:00 +35°C° 0 mm 4 mps 725 mmHg 41%
    12:00 +35°C° 0 mm 5 mps 725 mmHg 41%
    13:00 +36°C° 0 mm 6 mps 724 mmHg 41%
    14:00 +36°C° 0 mm 7 mps 724 mmHg 41%
    15:00 +35°C° 0 mm 6 mps 723 mmHg 44%
    16:00 +34°C° 0 mm 6 mps 723 mmHg 47%
    17:00 +33°C° 0 mm 6 mps 723 mmHg 49%
    18:00 +29°C° 0 mm 5 mps 723 mmHg 59%
    19:00 +27°C° 0 mm 4 mps 723 mmHg 68%
    20:00 +25°C° 0 mm 3 mps 723 mmHg 77%
    21:00 +24°C° 0 mm 2 mps 723 mmHg 81%
    22:00 +24°C° 0 mm 2 mps 723 mmHg 85%
    23:00 +23°C° 0 mm 2 mps 722 mmHg 89%

    23 July, Tuesday

    Time Temperature Precipitation Wind Pressure Humidity
    00:00 +23°C° 0 mm 2 mps 722 mmHg 89%
    01:00 +23°C° 0 mm 1 mps 722 mmHg 90%
    02:00 +23°C° 0 mm 1 mps 722 mmHg 90%
    03:00 +22°C° 0 mm 1 mps 722 mmHg 90%
    04:00 +22°C° 0 mm 1 mps 722 mmHg 90%
    05:00 +20°C° 0 mm 0 mps 722 mmHg 89%
    06:00 +24°C° 0 mm 1 mps 722 mmHg 78%
    07:00 +27°C° 0 mm 1 mps 722 mmHg 66%
    08:00 +29°C° 0 mm 1 mps 723 mmHg 55%
    09:00 +31°C° 0 mm 2 mps 723 mmHg 48%
    10:00 +35°C° 0 mm 3 mps 723 mmHg 41%
    11:00 +37°C° 0 mm 4 mps 723 mmHg 34%
    12:00 +36°C° 0 mm 5 mps 723 mmHg 34%
    13:00 +36°C° 0 mm 6 mps 722 mmHg 35%
    14:00 +36°C° 0 mm 7 mps 722 mmHg 35%
    15:00 +35°C° 0 mm 7 mps 722 mmHg 38%
    16:00 +34°C° 0 mm 6 mps 722 mmHg 41%
    17:00 +33°C° 0 mm 6 mps 722 mmHg 43%
    18:00 +30°C° 0 mm 5 mps 722 mmHg 56%
    19:00 +27°C° 0 mm 4 mps 722 mmHg 68%
    20:00 +25°C° 0 mm 3 mps 722 mmHg 81%
    21:00 +24°C° 0 mm 2 mps 722 mmHg 84%
    22:00 +24°C° 0 mm 2 mps 722 mmHg 87%
    23:00 +23°C° 0 mm 2 mps 722 mmHg 90%
    Show more